Location: Eldred Sherwood Park Lake Dam
(42.9416°N, 93.5655°W)
Time: 05:10:58
(UTC+00:00)

ARIANE 6 FM1 Upper Stage - Visible Passes

Search period start: 14 October 2024 00:00
Search period end: 24 October 2024 00:00
Orbit: 563 x 595 km, 62.0° (Epoch: 13 October)

Date Brightness Start Highest point End Pass type
(mag) Time Alt. Az. Time Alt. Az. Time Alt. Az.
14 Oct 5.4 02:29:26 10° NNW 02:30:13 14° NNW 02:30:13 14° NNW visible
15 Oct 4.9 00:55:50 10° N 00:57:36 12° NNE 00:58:09 12° NE visible
15 Oct 5.4 02:33:36 10° NNW 02:34:26 15° NNW 02:34:26 15° NNW visible
16 Oct 4.7 00:59:32 10° N 01:02:13 16° NNE 01:02:24 16° NE visible
16 Oct 5.5 02:37:49 10° NW 02:38:41 16° NW 02:38:41 16° NW visible
17 Oct 4.3 01:03:25 10° NNW 01:06:41 21° NE 01:06:41 21° NE visible
17 Oct 5.6 02:42:08 10° NW 02:42:58 15° NW 02:42:58 15° NW visible
18 Oct 3.8 01:07:24 10° NNW 01:11:03 29° NE 01:11:03 29° NE visible
18 Oct 5.7 02:46:34 10° NW 02:47:20 14° WNW 02:47:20 14° WNW visible
19 Oct 3.3 01:11:29 10° NNW 01:15:29 41° NE 01:15:29 41° NE visible
19 Oct 5.8 02:51:12 10° WNW 02:51:47 13° WNW 02:51:47 13° WNW visible
20 Oct 2.7 01:15:36 10° NNW 01:19:56 64° NE 01:20:01 64° NE visible
20 Oct 6.0 02:56:12 10° WNW 02:56:19 10° WNW 02:56:19 10° WNW visible
21 Oct 2.7 01:19:48 10° NW 01:24:11 82° SW 01:24:40 69° SSE visible
22 Oct 3.5 01:24:07 10° NW 01:28:21 51° WSW 01:29:30 39° S visible
22 Oct 3.5 23:49:11 10° NNW 23:53:11 34° NE 23:57:09 10° ESE visible
23 Oct 4.4 01:28:34 10° WNW 01:32:26 32° WSW 01:34:33 21° SSW visible
